OBJECT J (43766 NORAD) Tracking and Keplerian Element Data

This shows tracking and keplerian element data for the satellite.

Feedback or suggestion? Click here.




ElementValue
Catalog43766
NameOBJECT J
Epoch Orbit674
Epoch Day17.88036799
Epoch Year2019
RAAN91.5444
Inclination97.7622
Eccentricity0.0012951
Argument of Perigee109.1366
Mean Anonmoly251.1257
Mean Motion14.94437105
Decay Rate5.67E-06
L11 43766U 18099J 19017.88036799 .00000567 00000-0 57907-4 0 9991
L22 43766 97.7622 91.5444 0012951 109.1366 251.1257 14.94437105 6740

Live tracking and technical data element details for OBJECT J (NORAD 43766). OBJECT J can be tracked NOW for your location showing map with azimuth and elevation plus other details from your city location.

Track the satellite on the map from your city or location and see movement details for azimuth, elevation, latitude, longitude, range, height, and movement on the map or in text.







IsCatalogInMostPopularTable: catalog: 43766, numindb: 17
Update: records affected: 1



GetName: 43766 OBJECT J

Hit Count: updated at: Wed, 23 Jan 2019 03:09:33 GMT